星链-30194 (STARLINK-30194 )

导读

STARLINK-30194是美国SpaceX公司星链星座的一员,于2023年7月10日发射入轨,运行在近地轨道。它依托星链低轨星座架构,配备相控阵天线,可配合整体星座为全球提供高速低延迟互联网服务,重点覆盖偏远、地面基础设施匮乏区域,也可拓展支持应急及商业通信需求,是星链大规模组网部署的其中一环。

基本信息
目录编号:
57308
目录名称:
STARLINK-30194
国际标识:
2023-096U
轨道中心:
EARTH
卫星名称:
星链-30194
卫星全名:
星链-30194 (STARLINK-30194 )
卫星状态:
已陨落 最后检测时间 2025-09-01
发射日期:
2023-07-10 UTC
国别 :
美国 (US)
星等 :
--
该卫星已列入 空间交会检测服务 Space Conjunction Data Service (SCDS) ,当前飞行风险评估等级: 无高风险
轨道信息
数据来源 国际轨道数据
星历时间: 2025-09-01T10:31:21+0800
轨道信息已过期375天
半长轴: 6604.489km
偏心率: 0.0023838
轨道倾角: 42.967°
近地点辐角 256.311°
升交点赤经 113.513°
平近点角 103.512°
近地点: 210.61km
远地点: 242.098km
周期: 89.026分钟
每日圈数: 16.174987
详细信息
固有亮度:
5
最大亮度:
0.3
卫星平台:
Starlink v2.0 mini
覆盖范围:
全球
运营商:
太空探索技术公司
运营商所在国:
美国
制造商(研发单位):
太空探索技术公司
制造商所在国:
美国
使用方式:
暂无
卫星简介
星链(Starlink)计划是由太空探索技术公司(SpaceX)提出的一个巨型低轨卫星互联网星座项目,计划在2019年至2024年间在太空搭建由约1.2万颗卫星组成的“星链”网络,其中1584颗将部署在地球上空550千米处的近地轨道,并从2020年开始工作。该卫星仍在工作。
与全量物体交会距离演化趋势
与全量物体交会风险概率演化趋势